STARLINK-5030, 55418

Orbit data source: Space-Track

STARLINK-5030, 55418 is a payload satellite owned by SpaceX/Seattle (US) in LEO that was launched on Tue, 31 Jan 2023 UTC via an FALCON 9 launch vehicle from the Air Force Western Test Range (AFWTR). Payload-class satellites include a variety of spacecraft equipped with specific instruments for various scientific and technological missions. These include communications satellites like Starlink; space stations such as the ISS; scientific satellites like the Hubble; Earth observation satellites from companies like Planet Labs, Umbra, and HawkEye 360; GPS; miniature CubeSats for education and research; and military/defense satellites.

Loading next visibility...
Identifier
55418, 2023-014AD
Orbit
LEO
Country
Flag of USUS
Related business
Manufacturer
SpaceX/Seattle
Mission
Operational Commercial Communications
Bus & Motor
STARLINK, Unknown motor
Mass
305 kg wet, ~290 kg dry
Launch date (UTC)
2023-01-31 (3 years ago)
Launch vehicle
FALCON 9
Launch site
Air Force Western Test Range (AFWTR)
Object type
Payload
Rocket body
Debris
Shape & HBR
Box + 1 Pan, 10.1 m
Radar Cross Section
13.562 m², Large (>1 m²)

Expand to show TLE details & history
Last TLE update: 2 days ago

TLE from 2 days ago
0 STARLINK-5030
1 55418U 23014AD  26171.44468976  .00000299  00000-0  32858-4 0  9998
2 55418  69.9993 185.3808 0003899 272.4405  87.6308 14.98326954186958
Epoch: 2026-06-20T10:40Z
TLE epoch observation values (Epoch: 2026-06-20T10:40:21.195Z)
Latitude
0.00002°
Longitude
116.63328°
Altitude
574.378 km
Speed
7.574 km/s
True Right ascension
12h 21m 31s
True Declination
0° 00' 00"
Sunlit
Object was in daylight at epoch
Visualization orbit readout
Latitude
Unknown
Longitude
Unknown
Altitude
Unknown
Speed
Unknown
Apparent Right ascension
Unknown
Apparent Declination
Unknown
Sunlit
N/A
Visualization observer readout
Local Sidereal Time
21:28:04
Azimuth
Unknown
Elevation
Unknown
Doppler factor
Unknown
Orbital elements
Apogee altitude
572.723 km
Perigee altitude
567.305 km
Semi-major axis
6,948.151 km
Eccentricity
0.00039
Inclination
69.9993°
RAAN
185.3808°
Arg. of periapsis
272.4405°
True anomaly
87.67544°
Mean anomaly
87.6308°
Eccentric anomaly
87.65312°
Mean motion
3.74748 °/min
Orbital period
96.06 mins
BSTAR
0.000032858
Loading maneuver chart data...
Computing Atmospheric mass density...

Documentation

Showing up to 5 results
|